This is the latest recevied weather packets stored in our database for station/object KJ4EWA. If no packets are shown the sender has not sent any weather packets the latest 10 day(s).
| Time | Temp. | Humidity | Pressure | Rain* | Wind** | Luminosity | Snow |
|---|---|---|---|---|---|---|---|
| 1777507275 | 23.89° C | 99% | 1016 hPa | 0 mm | - | 0 W/m² | - |
| 1777506972 | 23.89° C | 99% | 1015.9 hPa | 0 mm | - | 0 W/m² | - |
| 1777506669 | 23.89° C | 98% | 1016 hPa | 0 mm | - | 0 W/m² | - |
| 1777506366 | 24.44° C | 98% | 1016.1 hPa | 0 mm | - | 0 W/m² | - |
| 1777506061 | 24.44° C | 97% | 1015.9 hPa | 0 mm | - | 0 W/m² | - |
| 1777505756 | 24.44° C | 97% | 1015.7 hPa | 0 mm | - | 0 W/m² | - |
| 1777505454 | 24.44° C | 97% | 1015.5 hPa | 0 mm | - | 1 W/m² | - |
| 1777505151 | 24.44° C | 96% | 1015.6 hPa | 0 mm | - | 1 W/m² | - |
| 1777504848 | 25° C | 95% | 1015.4 hPa | 0 mm | - | 1 W/m² | - |
| 1777504545 | 25° C | 95% | 1015.4 hPa | 0 mm | - | 4 W/m² | - |
| 1777504241 | 25° C | 94% | 1015.3 hPa | 0 mm | - | 5 W/m² | - |
| 1777503936 | 25° C | 93% | 1015.2 hPa | 0 mm | - | 6 W/m² | - |
| 1777503633 | 25° C | 93% | 1015.5 hPa | 0 mm | - | 9 W/m² | - |
| 1777503330 | 25° C | 92% | 1015.4 hPa | 0 mm | - | 9 W/m² | - |
| 1777503026 | 25° C | 92% | 1015.4 hPa | 0 mm | - | 10 W/m² | - |
| 1777502724 | 25.56° C | 92% | 1015.1 hPa | 0 mm | - | 12 W/m² | - |
| 1777502420 | 25.56° C | 92% | 1015 hPa | 0 mm | - | 15 W/m² | - |
| 1777502117 | 25.56° C | 91% | 1014.8 hPa | 0 mm | - | 21 W/m² | - |
| 1777501815 | 25.56° C | 92% | 1014.5 hPa | 0 mm | - | 24 W/m² | - |
| 1777501512 | 25.56° C | 92% | 1014.2 hPa | 0 mm | - | 28 W/m² | - |
| 1777501209 | 25.56° C | 92% | 1014.4 hPa | 0 mm | - | 32 W/m² | - |
| 1777500907 | 25.56° C | 92% | 1014.2 hPa | 0 mm | - | 35 W/m² | - |
| 1777500603 | 25.56° C | 92% | 1014.1 hPa | 0 mm | - | 43 W/m² | - |
| 1777500300 | 25.56° C | 92% | 1014.3 hPa | 0 mm | - | 49 W/m² | - |
| 1777499997 | 26.11° C | 91% | 1014.3 hPa | 0 mm | - | 59 W/m² | - |
* Rain latest hour (hover to see other rain measurements)
** Current wind speed in m/s (hover to see current wind gust speed)